2022-087D (53302 NORAD) Tracking and Keplerian Element Data

This shows tracking and keplerian element data for the satellite.

Feedback or suggestion? Click here.




ElementValue
Catalog53302
Name2022-087D
Epoch Orbit944
Epoch Day270.22768086
Epoch Year2022
RAAN343.7054
Inclination97.401
Eccentricity0.0016704
Argument of Perigee80.9792
Mean Anonmoly4.6493
Mean Motion15.22616568
Decay Rate9.381E-05
L11 53302U 22087D 22270.22768086 .00009381 00000+0 40481-3 0 9994
L22 53302 97.4010 343.7054 0016704 80.9792 4.6493 15.22616568 9440

Live tracking and technical data element details for 2022-087D (NORAD 53302). 2022-087D can be tracked NOW for your location showing map with azimuth and elevation plus other details from your city location.

Track the satellite on the map from your city or location and see movement details for azimuth, elevation, latitude, longitude, range, height, and movement on the map or in text.







IsCatalogInMostPopularTable: catalog: 53302, numindb: 4
Update: records affected: 1



GetName: 53302 2022-087D

Hit Count: updated at: Thu, 29 Sep 2022 12:32:18 GMT